Hourly Data Report for October 15, 2016

All times are specified in Local Standard Time (LST). Add 1 hour to adjust for Daylight Saving Time where and when it is observed.

PETAWAWA AWOS 2
ONTARIO

45°57'00.000" N
77°19'00.000" W
130.10 m
6106396
71625
YWA

Download Data

Hourly Data (October 2016)
Hourly Data Report for October 15, 2016
Temp Definition
°C
Dew Point Temp Definition
°C
Rel Hum Definition
%
Wind Dir Definition
10's deg

Wind Spd Definition
km/h
Visibility Definition
km
Stn Press Definition
kPa
Hmdx Definition


Wind Chill Definition


Weather Definition


TIME
00:00 7.5 4.1 79 14 7 14.5 100.96     LegendNANA
01:00 8.4 5.5 82 13 13 14.5 100.97     LegendNANA
02:00 7.6 6.1 90 16 9 14.5 100.94     LegendNANA
03:00 6.9 5.6 91 14 15 14.5 100.94     LegendNANA
04:00 6.8 5.1 89 15 6 14.5 100.99     LegendNANA
05:00 6.3 4.5 88 13 13 14.5 100.99     LegendNANA
06:00 6.0 4.7 91 12 15 14.5 100.96     LegendNANA
07:00 6.1 5.2 94 14 13 14.5 100.93     LegendNANA
08:00 6.3 4.5 88 14 11 14.5 100.93     LegendNANA
09:00 7.3 5.1 86 14 13 14.5 100.93     LegendNANA
10:00 9.6 6.0 78 13 17 14.5 100.82     LegendNANA
11:00 11.4 6.8 73 12 19 14.5 100.72     LegendNANA
12:00 14.4 8.0 65 13 15 14.5 100.60     LegendNANA
13:00 17.7 6.3 47 17 17 14.5 100.46     LegendNANA
14:00 18.6 5.8 43 17 17 14.5 100.36     LegendNANA
15:00 17.7 5.4 44 17 9 14.5 100.28     LegendNANA
16:00 17.2 7.0 51 15 9 14.5 100.21     LegendNANA
17:00 16.6 7.2 54 15 7 14.5 100.17     LegendNANA
18:00 16.1 6.5 53 14 11 14.5 100.15     LegendNANA
19:00 15.5 6.1 54 13 13 14.5 100.16     LegendNANA
20:00 14.8 6.7 58 14 13 14.5 100.13     LegendNANA
21:00 14.0 7.2 64 14 11 14.5 100.09     LegendNANA
22:00 13.2 8.2 72 13 13 14.5 100.02     LegendNANA
23:00 12.7 8.7 77 13 11 14.5 99.93     LegendNANA

Notes on Data Quality.

Legend

  • E = Estimated
  • M = Missing
  • NA = Not Available
  • ‡ = Partner data that is not subject to review by the National Climate Archives
Date modified: